Regional Weather Roundup
Issued by NWS

Home | Current Version | Previous Version | Graphics & Text | Print | Product List | Glossary On
Versions: 1 2 3 4 5 6 7 8 9 10 11 12 13 14 15 16 17 18 19 20 21 22 23 24 25 26 27 28 29 30 31 32 33 34 35 36 37 38 39 40 41 42 43 44 45 46 47 48 49 50
000
ASUS44 KMEG 241100
RWRTN
TENNESSEE HOURLY STATE WEATHER ROUNDUP
NATIONAL WEATHER SERVICE MEMPHIS TN
600 AM CDT SUN SEP 24 2017

TNZ002-004-019-021-049-052-054-088>092-241200-
WEST TENNESSEE

CITY           SKY/WX    TMP DP  RH WIND       PRES   REMARKS
MEMPHIS INTL   CLEAR     74  69  85 E5        30.01R
NWS MEMPHIS      N/A     70 N/A N/A MISG        N/A
JACKSON        CLEAR     67  66  97 CALM      30.02R FOG
DYERSBURG      CLEAR     69  68  96 CALM      30.02R
$$

TNZ008-025-027-028-033-062-065-066-241200-
NORTH MIDDLE TENNESSEE

CITY           SKY/WX    TMP DP  RH WIND       PRES   REMARKS
NASHVILLE      PTCLDY    68  67  96 CALM      30.06R FOG
CLARKSVILLE    CLEAR     66  63  90 CALM      30.05R FOG
SMYRNA           N/A    N/A N/A N/A MISG        N/A
CROSSVILLE     CLEAR     61  60  97 CALM      30.13R FOG
$$

TNZ061-075-076-078-094-096-097-241200-
SOUTH MIDDLE TENNESSEE

CITY           SKY/WX    TMP DP  RH WIND       PRES   REMARKS
$$

TNZ017-018-042-046-047-241200-
NORTHEAST TENNESSEE

CITY           SKY/WX    TMP DP  RH WIND       PRES   REMARKS
TRI CITIES     PTCLDY    59  59 100 CALM      30.15R
$$

TNZ012-013-036-069-073-074-241200-
CENTRAL EAST TENNESSEE

CITY           SKY/WX    TMP DP  RH WIND       PRES   REMARKS
KNOXVILLE      PTCLDY    66  63  90 CALM      30.08R
OAK RIDGE      CLOUDY    66  65  96 CALM      30.11R FOG
GATLINBURG     CLEAR     61  61 100 CALM      30.10R
$$

TNZ083-085-099-241200-
SOUTHEAST TENNESSEE

CITY           SKY/WX    TMP DP  RH WIND       PRES   REMARKS
CHATTANOOGA    FOG       67  65  93 CALM      30.08R VSB 1
$$

SKY/WX REPORTED AS FAIR MEANS FEW OR NO CLOUDS BELOW
12 THOUSAND FEET.





USA.gov is the U.S. government's official web portal to all federal, state and local government web resources and services.